Back to catalog

JIXING KUANFU-02B 07

AliveScienceSSO
NORAD 65938·PAYLOAD·🇨🇳 China
This satellite name has not been confirmed by official sources yet.

Launched Oct 11, 2025 from Yellow Sea Launch Area

Loading…

Next Passes (next 24 hours)

TLE

FreshSource: Space-Track

Epoch: Sep 13, 2026, 16:16 UTC

1 65938U 25226A   26256.67821776  .00006112  00000-0  30758-3 0  9999
2 65938  97.6393 337.8586 0013024 194.6705 165.4152 15.17518511 51119

Track JIXING KUANFU-02B 07 in real time with AllMySat

Download on the App Store